Welcome to the New NWS' Forecast!
Most changes are behind the scenes, but click here for differences you might notice.
Latest weather observations around

Chicago, Chicago-O'Hare International Airport (KORD)

Using English Units (Switch to International System of Units)
Date/ Time (CDT) Wind (mph) Vis. (mi) Weather Sky Cond. Temp (°F) Rel. Humidity Wind Chill (°F) Heat Index (°F) Pressure Precip. (in)
Air Dwpt 6 hour Altimeter (inHg) Sea level (inHg) 1 hr 3 hr 6 hr
Max Min
Jul 19 07:51 E 9 10 Mostly Cloudy FEW130 BKN250 73 58     59%   73 30 29.99      
Jul 19 06:51 E 5 10 Mostly Cloudy FEW130 BKN250 71 58     63%   71 30.02 30      
Jul 19 05:51 ENE 5 10 Partly Cloudy FEW130 SCT250 68 56     65%     30.01 30      
Jul 19 04:51 E 5 10 Mostly Clear FEW250 68 58     70%     30.01 30      
Jul 19 03:51 E 3 10 Partly Cloudy SCT250 68 56     65%     30.03 30.01      
Jul 19 02:51 E 3 10 Partly Cloudy SCT250 68 56     65%     30.03 30.02      
Jul 19 01:51 E 5 10 Partly Cloudy SCT250 69 57     65%     30.04 30.02      
Jul 19 00:51 E 5 10 Mostly Cloudy BKN250 70 56     61%     30.05 30.03      
Jul 18 23:51 E 3 10 Mostly Cloudy BKN250 71 54     55%   70 30.05 30.03      
Jul 18 22:51 Calm 10 Mostly Cloudy BKN250 71 53     53%   70 30.05 30.04      
Jul 18 21:51 E 7 10 Cloudy OVC250 72 50     46%   71 30.05 30.04      
Jul 18 20:51 E 7 10 Mostly Cloudy FEW090 BKN250 73 50     44%   72 30.05 30.03      
Jul 18 19:51 E 9 10 Mostly Cloudy FEW090 BKN250 73 51     46%   72 30.05 30.04      
Jul 18 18:51 E 11 10 Mostly Cloudy FEW060 BKN250 75 51     43%   74 30.05 30.04      
Jul 18 17:51 E 11 10 Partly Cloudy FEW060 SCT250 77 50     39%   76 30.06 30.05      
Jul 18 16:51 ENE 6 10 Partly Cloudy FEW055 SCT250 77 50     39%   76 30.07 30.06      
Jul 18 15:51 E 11 10 Partly Cloudy FEW055 SCT250 79 50     36%   78 30.09 30.07      
Jul 18 14:51 ENE 9 10 Partly Cloudy SCT055 SCT250 79 51     38%   78 30.11 30.09      
Jul 18 13:51 NE 11 10 Mostly Clear FEW055 FEW250 78 50     37%   77 30.12 30.1      
Jul 18 12:51 E 9 10 Mostly Clear FEW060 FEW250 79 51     38%   78 30.12 30.11      
Jul 18 11:51 ENE 11 10 Mostly Clear FEW060 FEW250 78 51     39%   77 30.12 30.11      
Jul 18 10:51 ENE 11 10 Mostly Clear FEW060 FEW250 77 51     40%   76 30.13 30.11      
Jul 18 09:51 E 10 10 Mostly Clear FEW250 76 49     39%   75 30.12 30.11      
Jul 18 08:51 ENE 10 10 Mostly Clear FEW250 73 49     43%   72 30.13 30.12      
Jul 18 07:51 NE 8 10 Mostly Clear FEW065 FEW250 71 51     49%   70 30.13 30.12      
Jul 18 06:51 NNE 6 10 Clear   68 55     63%     30.13 30.12      
Jul 18 05:51 N 5 10 Mostly Clear FEW060 FEW250 64 57     78%     30.13 30.12      
Jul 18 04:51 Calm 10 Mostly Clear FEW060 FEW250 64 57     78%     30.13 30.12      
Jul 18 03:51 NW 3 10 Clear CLR 65 57     76%     30.13 30.11      
Jul 18 02:51 NNE 5 10 Clear CLR 65 57     76%     30.12 30.1      
Jul 18 01:51 NNE 6 10 Clear CLR 67 57     71%     30.11 30.1      
Jul 18 00:51 ENE 8 10 Clear CLR 68 57     68%     30.11 30.1      
Jul 17 23:51 NE 8 10 Clear CLR 69 58     68%     30.11 30.1      
Jul 17 22:51 NE 9 10 Clear CLR 69 58     68%     30.12 30.1      
Jul 17 21:51 ENE 9 10 Mostly Clear FEW060 70 58     66%     30.1 30.09      
Jul 17 20:51 NE 11 10 Mostly Clear FEW060 70 58     66%     30.09 30.08      
Jul 17 19:51 ENE 14 10 Mostly Clear FEW060 FEW250 72 58     61%   72 30.08 30.07      
Jul 17 18:51 NNE 11 10 Mostly Clear FEW060 FEW250 75 57     54%   75 30.07 30.06      
Jul 17 17:51   10 Mostly Clear FEW060 78 54     43%   78 30.06 30.05      
Jul 17 16:51 ENE 11 10 Mostly Clear FEW070 FEW250 79 54     42%   79 30.07 30.05      
Jul 17 15:51 ENE 13 10 Mostly Clear FEW070 FEW250 80 53     39%   80 30.07 30.05      
Jul 17 14:51 NNE 14 10 Mostly Clear FEW070 FEW250 80 56     44%   80 30.07 30.06      
Jul 17 13:51 ENE 14 10 Partly Cloudy FEW070 SCT250 80 56     44%   80 30.08 30.06      
Jul 17 12:51 NE 15 10 Mostly Cloudy FEW048 FEW065 BKN250 79 59     50%   79 30.08 30.06      
Jul 17 11:51 ENE 13 10 Mostly Cloudy FEW048 BKN250 80 58     47%   80 30.07 30.06      
Jul 17 10:51 NE 13 10 Mostly Cloudy FEW045 BKN250 80 60     51%   81 30.07 30.05      
Jul 17 09:51 5 10 Partly Cloudy FEW045 SCT250 79 59     50%   79 30.06 30.04      
Jul 17 08:51 N 3 10 Partly Cloudy SCT250 77 60     56%   77 30.05 30.04      
Jul 17 07:51 N 8 10 Mostly Clear FEW250 74 59     60%   74 30.05 30.03      
Jul 17 06:51 NNW 7 10 Mostly Clear FEW250 72 59     64%   72 30.04 30.02      
Jul 17 05:51 NW 7 10 Mostly Clear FEW250 70 58     66%     30.02 30      
Jul 17 04:51 NW 7 10 Mostly Clear FEW250 71 58     63%   71 30 29.98      
Jul 17 03:51 NW 8 10 Clear   71 58     63%   71 30 29.98      
Jul 17 02:51 WNW 7 10 Mostly Clear FEW110 70 58     66%     29.99 29.98      
Jul 17 01:51 WNW 6 10 Mostly Clear FEW110 71 57     61%   71 29.99 29.98      
Jul 17 00:51 WNW 7 10 Mostly Clear FEW110 73 56     55%   73 29.99 29.97      
Jul 16 23:51 NW 7 10 Clear CLR 74 56     53%   74 29.99 29.97      
Jul 16 22:51 NNW 6 10 Clear CLR 76        %     29.99 29.97      
Jul 16 21:51 NNW 8 10 Mostly Clear FEW250 77        %     29.98 29.96      
Jul 16 20:51 N 10 10 Mostly Clear FEW250 79        %     29.95 29.93      
Jul 16 19:51 NW 10 10 Mostly Clear FEW045 FEW250 83        %     29.93 29.91      
Jul 16 18:51 NNW 16 10 Partly Cloudy FEW034 FEW046 SCT250 86 61     43%   86 29.91 29.89     0
Jul 16 17:51 NW 11 10 Mostly Cloudy SCT034 BKN046 88 66     48%   90 29.9 29.88      
Jul 16 16:51 NE 8 10 Mostly Cloudy SCT036 BKN048 BKN065 86 70     59%   91 29.9 29.89      
Jul 16 15:51 NE 6 10 Mostly Cloudy SCT045 BKN065 BKN100 88 69     54%   92 29.9 29.88 0 0  
Jul 16 15:30 Calm 10 Mostly Cloudy SCT045 BKN065 BKN100 85 68     57%   88 29.9   0    
Jul 16 14:51 SE 5 8 Light Rain FEW042 BKN065 BKN100 BKN250 79 70     74%   82 29.92 29.9 0    
Notice The following observation data may not be complete
Jul 16 14:02 ENE 16 10 Mostly Cloudy FEW036 SCT048 BKN070 BKN250   67      %     29.92        
Notice The following observation data may not be complete
Jul 16 13:51   10 Mostly Cloudy SCT045 BKN055 BKN120 BKN250   71      %     29.92 29.9 0    
Jul 16 12:51 7 10 Mostly Cloudy SCT042 BKN055 BKN120 BKN250 90 68     49%   94 29.91 29.89      
Jul 16 11:51 Calm 10 Mostly Cloudy SCT040 SCT055 SCT100 BKN250 88 68     52%   92 29.93 29.91      
Jul 16 10:51 W 9 10 Mostly Cloudy SCT032 SCT110 BKN250 86 69     57%   90 29.94 29.92      
Jul 16 09:51 6 10 Mostly Cloudy FEW040 BKN110 BKN250 84 72     67%   90 29.94 29.92      
Jul 16 08:51 WNW 3 10 Mostly Cloudy FEW040 BKN110 BKN250 82 72     72%   87 29.93 29.91      
May 14 22:19 SSE 13 4 Thunderstorms and Heavy Rain and Fog/Mist FEW011 BKN036 OVC100 64 61     90%     29.84   0    
May 14 06:22 W 7 2 Thunderstorms and Heavy Rain and Fog/Mist BKN015 OVC020 55 52     89%     30.01   0    
May 13 20:51 Calm 10 Mostly Cloudy FEW120 FEW150 SCT200 BKN250 55 49     80%     29.97 29.97      
May 13 16:51 ESE 8 10 Cloudy FEW023 SCT055 BKN200 OVC250 64 53     67%     29.98 29.98      
May 13 02:35 NNE 11 5 Thunderstorms and Rain FEW006 FEW020 OVC027 48 46     93% 43   30.02   0    
Notice The following observation data may not be complete
May 13 01:39   10 Thunderstorms BKN008 BKN014 OVC020          %              
May 12 14:10 NNE 14 3 Thunderstorms and Heavy Rain BKN012 OVC029 47 42     83% 41   30.13   0    
May 11 23:51 NE 11 10 Cloudy SCT075 OVC110 47 42     83% 42   29.97 29.98      
May 11 14:51 ENE 10 10 Light Rain OVC050 51 46     83%     29.97 29.97 0    
Jun 11 22:51 SSW 17 10 Clear CLR 84 58     41%   83 29.91 29.89      
Jun 11 14:51 SSW 13 10 Clear   91 61     37%   91 29.91 29.89      
Jun 10 09:51 SW 13 10 Mostly Cloudy BKN250 77 57     50%   77 29.87 29.86      
Jun 09 22:51 E 6 10 Mostly Clear FEW075 67 55     66%     29.83 29.81      
Jun 09 15:51 ENE 13 10 Clear   83 57     41%   82 29.76 29.75      
Jun 08 07:51 SW 5 10 Clear   67 46     47%     30.05 30.03